Weather History for Chadron, NE

Change the Weather History Date:

Friday, March 14, 2014

  Actual Average Record
Temperature  
Mean Temperature 47 °F 35 °F  
Max Temperature 63 °F 50 °F 80 °F (2003)
Min Temperature 30 °F 20 °F -20 °F (1895)
Degree Days  
Heating Degree Days 18 30  
Month to date heating degree days 435 444  
Since 1 July heating degree days 5909 5696  
Cooling Degree Days 0 0  
Month to date cooling degree days 0 0  
Year to date cooling degree days 0 0  
Moisture  
Dew Point 26 °F    
Average Humidity 53    
Maximum Humidity 85    
Minimum Humidity 20    
Precipitation  
Precipitation 0.00 in 0.03 in 1.14 in (1929)
Month to date precipitation 0.10 0.50  
Year to date precipitation 1.12 1.47  
Sea Level Pressure  
Sea Level Pressure 29.92 in    
Wind  
Wind Speed 11 mph (WSW)    
Max Wind Speed 22 mph    
Max Gust Speed 28 mph    
Visibility 10 miles    
Events      
T = Trace of Precipitation, MM = Missing Value Source: NWS Daily Summary

Daily Weather History Graph

Daily Weather History Graph

Search for Another Location

Airport:

Trip Planner

Search our weather history database for the weather conditions in past years. The results will help you decide how hot, cold, wet, or windy it might be!

Date:

Astronomy

Mar. 14, 2014 Rise Set
Actual Time 7:06 AM MDT 6:57 PM MDT
Civil Twilight 6:37 AM MDT 7:25 PM MDT
Nautical Twilight 6:05 AM MDT 7:58 PM MDT
Astronomical Twilight 5:31 AM MDT 8:32 PM MDT
Moon 5:20 PM MDT (3/14) 5:49 AM MDT (3/14)
Length of Visible Light 12h 48m
Length of Day
11h 51m
Waxing Gibbous, 96% of the Moon is Illuminated
Mar 14
Waxing Gibbous
Mar 16
Full
Mar 23
Last Quarter
Mar 30
New
Apr 7
First Quarter

Hourly Weather History & Observations

Time (MDT) Temp. Windchill Dew Point Humidity Pressure Visibility Wind Dir Wind Speed Gust Speed Precip Events Conditions
12:53 AM 32.0 °F 24.8 °F 27.0 °F 82% 29.95 in 10.0 mi WSW 8.1 mph - N/A   Clear
1:53 AM 33.1 °F 24.9 °F 27.0 °F 78% 29.96 in 10.0 mi WNW 10.4 mph - N/A   Clear
2:33 AM 35.6 °F 25.2 °F 28.4 °F 75% 29.95 in 10.0 mi West 18.4 mph - N/A   Clear
2:53 AM 35.1 °F 24.8 °F 27.0 °F 72% 29.98 in 10.0 mi West 17.3 mph - N/A   Clear
3:53 AM 34.0 °F 24.6 °F 27.0 °F 75% 29.99 in 10.0 mi West 13.8 mph - N/A   Clear
4:53 AM 32.0 °F 23.0 °F 27.0 °F 82% 30.01 in 10.0 mi WSW 11.5 mph - N/A   Clear
5:53 AM 30.9 °F 21.7 °F 26.1 °F 82% 30.01 in 10.0 mi WSW 11.5 mph - N/A   Clear
6:53 AM 30.0 °F 21.7 °F 25.0 °F 82% 30.01 in 10.0 mi WSW 9.2 mph - N/A   Clear
7:53 AM 32.0 °F 23.6 °F 26.1 °F 79% 30.03 in 10.0 mi WSW 10.4 mph - N/A   Clear
8:53 AM 37.0 °F 30.4 °F 27.0 °F 67% 30.03 in 10.0 mi WSW 9.2 mph - N/A   Clear
9:53 AM 45.0 °F 40.1 °F 25.0 °F 46% 29.99 in 10.0 mi WSW 9.2 mph - N/A   Clear
10:53 AM 48.9 °F - 25.0 °F 39% 29.98 in 10.0 mi SW 9.2 mph - N/A   Clear
11:53 AM 52.0 °F - 27.0 °F 38% 29.97 in 10.0 mi WSW 8.1 mph - N/A   Clear
12:53 PM 55.9 °F - 26.1 °F 32% 29.93 in 10.0 mi WSW 17.3 mph - N/A   Clear
1:53 PM 60.1 °F - 27.0 °F 28% 29.89 in 10.0 mi West 17.3 mph 25.3 mph N/A   Clear
2:53 PM 62.1 °F - 25.0 °F 24% 29.85 in 10.0 mi West 16.1 mph 25.3 mph N/A   Clear
3:53 PM 62.1 °F - 21.0 °F 21% 29.83 in 10.0 mi WSW 16.1 mph 25.3 mph N/A   Clear
4:53 PM 63.0 °F - 23.0 °F 22% 29.80 in 10.0 mi WSW 11.5 mph - N/A   Clear
5:53 PM 61.0 °F - 19.9 °F 21% 29.81 in 10.0 mi WNW 12.7 mph - N/A   Clear
6:53 PM 53.1 °F - 26.1 °F 35% 29.83 in 10.0 mi West 6.9 mph - N/A   Clear
7:53 PM 46.0 °F 41.4 °F 28.9 °F 51% 29.84 in 10.0 mi SSW 9.2 mph - N/A   Clear
8:53 PM 42.1 °F 37.1 °F 28.0 °F 58% 29.83 in 10.0 mi West 8.1 mph - N/A   Clear
9:53 PM 43.0 °F 37.7 °F 26.1 °F 51% 29.83 in 10.0 mi WNW 9.2 mph - N/A   Clear
10:53 PM 37.9 °F 34.4 °F 26.1 °F 62% 29.82 in 10.0 mi West 4.6 mph - N/A   Clear
11:53 PM 34.0 °F 27.2 °F 27.0 °F 75% 29.82 in 10.0 mi WSW 8.1 mph - N/A   Clear